Location: Isola Pescaroli
(45.0500°N, 10.1667°E)
Time: 16:33:30
(UTC+00:00)

Cosmos 2322 - Pass Details

Date: 03 March 2021
Orbit: 842 x 853 km, 71.0° (Epoch: 18 April)

Event Time Altitude Azimuth Distance (km) Brightness Sun altitude
Rises 19:43:39 0° 218° (SW) 3,409 7.1 -27.6°
Reaches altitude 10° 19:46:09 10° 223° (SW) 2,477 6.4 -28.0°
Maximum altitude 19:51:43 55° 300° (WNW) 1,022 4.3 -29.0°
Drops below altitude 10° 19:57:20 10° 18° (NNE) 2,490 6.2 -29.9°
Sets 19:59:52 0° 23° (NNE) 3,428 6.9 -30.3°
